Jordan Hwy 8

*Note: All times are displayed in the local standard time of the station location.
**Rain - Equipment is designed to accurately record liquid precipitation; under conditions when precipitation is not in liquid form, the data displayed may not properly reflect rainfall values.

Date Max Temp
(°C)
Min Temp
(°C)
Avg Temp
(°C)
Rain (mm) Avg RH (%)
Fri, Feb 15, 2019 5.2 -4.0 1.1 2.8 73.0
Thu, Feb 14, 2019 2.9 -4.2 -0.8 0.2 71.7
Wed, Feb 13, 2019 1.4 -4.2 -2.2 0.4 76.2
Tue, Feb 12, 2019 2.4 -5.0 -2.0 15.6 86.6
Mon, Feb 11, 2019 -1.8 -4.4 -3.1 0.0 71.8
Sun, Feb 10, 2019 -2.5 -9.8 -5.7 0.0 70.4
Sat, Feb 09, 2019 -3.8 -9.6 -6.7 0.0 61.3
DateTime Avg Temp (°C) Rain (mm) RH (%)
Sat, Feb 16, 2019 16:00 -1.8 0.0 57.5
Sat, Feb 16, 2019 15:00 -1.9 0.0 59.3
Sat, Feb 16, 2019 14:00 -2.1 0.0 61.1
Sat, Feb 16, 2019 13:00 -2.4 0.0 60.7
Sat, Feb 16, 2019 12:00 -3.0 0.0 61.1
Sat, Feb 16, 2019 11:00 -3.3 0.0 62.3
Sat, Feb 16, 2019 10:00 -3.4 0.0 63.3
Sat, Feb 16, 2019 09:00 -3.6 0.0 61.4
Sat, Feb 16, 2019 08:00 -4.2 0.0 65.0
Sat, Feb 16, 2019 07:00 -3.8 0.0 70.2
Sat, Feb 16, 2019 06:00 -3.1 0.0 70.3
Sat, Feb 16, 2019 05:00 -3.2 0.0 77.2
Sat, Feb 16, 2019 04:00 -3.4 0.0 76.3
Sat, Feb 16, 2019 03:00 -3.4 0.0 75.2
Sat, Feb 16, 2019 02:00 -3.4 0.0 72.2
Sat, Feb 16, 2019 01:00 -3.6 0.0 70.5
Sat, Feb 16, 2019 00:00 -3.7 0.0 68.5
Fri, Feb 15, 2019 23:00 -4.0 0.0 67.2
Fri, Feb 15, 2019 22:00 -3.6 0.0 65.9
Fri, Feb 15, 2019 21:00 -3.1 0.0 64.1
Fri, Feb 15, 2019 20:00 -2.1 0.0 66.4
Fri, Feb 15, 2019 19:00 -1.7 0.0 63.3
Fri, Feb 15, 2019 18:00 -1.0 0.0 64.0
Fri, Feb 15, 2019 17:00 -0.2 0.0 60.8
Fri, Feb 15, 2019 16:00 0.3 0.0 62.6
Fri, Feb 15, 2019 15:00 0.7 0.0 67.8
Fri, Feb 15, 2019 14:00 1.9 0.0 61.1
Fri, Feb 15, 2019 13:00 2.6 0.0 57.7
Fri, Feb 15, 2019 12:00 3.0 0.0 62.9
Fri, Feb 15, 2019 11:00 4.1 0.0 70.4
Fri, Feb 15, 2019 10:00 4.6 0.0 79.7
Fri, Feb 15, 2019 09:00 4.0 0.2 88.2
Fri, Feb 15, 2019 08:00 4.2 0.0 88.1
Fri, Feb 15, 2019 07:00 4.0 0.0 90.4
Fri, Feb 15, 2019 06:00 4.1 1.4 90.3
Fri, Feb 15, 2019 05:00 4.3 0.4 87.6
Fri, Feb 15, 2019 04:00 4.6 0.6 78.4
Fri, Feb 15, 2019 03:00 2.3 0.2 80.4
Fri, Feb 15, 2019 02:00 0.5 0.0 83.5
Fri, Feb 15, 2019 01:00 0.2 0.0 83.4
Fri, Feb 15, 2019 00:00 0.1 0.0 81.8
Thu, Feb 14, 2019 23:00 0.0 0.0 81.3
Thu, Feb 14, 2019 22:00 -0.3 0.0 82.7
Thu, Feb 14, 2019 21:00 -0.7 0.0 84.0
Thu, Feb 14, 2019 20:00 -0.8 0.0 82.9
Thu, Feb 14, 2019 19:00 -0.2 0.0 79.8
Thu, Feb 14, 2019 18:00 1.4 0.0 67.5
Thu, Feb 14, 2019 17:00 2.4 0.0 59.8


asterix Register now to access more data! asterix